Find Starlink 35582

NORAD ID: 66537 Int'l Des: 2025-265 Owner: SPXS Country: US Constellation: starlink operational
LEOCIRCULAR

当前视图

正在加载3D地球...

About Starlink 35582

Starlink 35582 (NORAD 66537) is a starlink constellation satellite (v2 mini) launched Nov 19, 2025 by SPXS of US. It operates in LEO, CIRCULAR orbit with a mass of 575.00 kg.

关于 Starlink 35582

正在加载描述...

即将过境

Passes for default location (London). Set your location on the main map for personalized predictions.

高度历史

Loading altitude history...

两行轨道根数

1 66537U 25265X 26194.23484845 .00021909 00000-0 80270-3 0 9998
2 66537 42.9877 288.9293 0005058 151.4197 208.6933 15.27595669 36312
Epoch: Jul 13, 2026 • Age: 25 hours

当前状态

高度 484.9 km
远地点 / 近地点 N/A
速度 7.62 km/s
星下点 7.40°N, 103.06°W
发射日期 Nov 19, 2025
运行时间 0.6 years
类型 internet

技术详情

分类 Payload
质量 575.00 kg
干质量 530.00 kg
总质量 575.00 kg
长度 0.30 m
直径 4.10 m
跨度 29.00 m
形状 Box + pan
制造商 SPXS
平台类型 Starlink V2MO
阶段状态 In Orbit
所有者/国家 SPXS/US

Most Searched